Regional Weather Roundup
Issued by NWS

Home | Current Version | Previous Version | Text Only | Print | Product List | Glossary Off
Versions: 1 2 3 4 5 6 7 8 9 10 11 12 13 14 15 16 17 18 19 20 21 22 23 24 25 26 27 28 29 30 31 32 33 34 35 36 37 38 39 40 41 42 43 44 45 46 47 48 49 50

999
ASUS43 KIND 012309
RWRIN

WEATHER ROUNDUP FOR INDIANA
NATIONAL WEATHER SERVICE INDIANAPOLIS IN
700 PM EDT SUN MAY 01 2016

NOTE: "FAIR" INDICATES FEW OR NO CLOUDS BELOW 12,000 FEET WITH NO
SIGNIFICANT WEATHER AND/OR OBSTRUCTIONS TO VISIBILITY.

* - STATION DOES NOT REPORT WEATHER SUCH AS PRECIPITATION OR FOG.

+ - STATION NOT QUALITY CONTROLLED BY THE NATIONAL WEATHER SERVICE.
    USE DATA WITH CAUTION...ESPECIALLY DEWPOINT AND RELATIVE
    HUMIDITY OBSERVATIONS.

INZ001>003-010>013-019-020-020000-
NORTHWEST INDIANA

CITY           SKY/WX    TMP DP  RH WIND       PRES   REMARKS
GARY /AIRPORT/ CLOUDY    48  48 100 N12       29.98S FOG
KNOX *+        CLOUDY    54  48  82 N9        29.92F
LA PORTE +     CLOUDY    55  55  97 N8        29.94F
MICHIGAN CITY+ CLOUDY    50  50 100 N6        29.95F
MONTICELLO +   CLOUDY    58  53  83 NE7       29.90F
RENSSELAER +   CLOUDY    55  52  88 N10       29.91F
VALPARAISO     CLOUDY    52  48  86 N9        29.95R

$$

LMZ046-743>745-020000-
SOUTHERN LAKE MICHIGAN

STATION/POSITION TIME  TEMP    WIND        PRES    WAVE
                       AIR SEA DIR/SP/G            HT
                 (UTC) (F)     (DEG/KT/KT) (MB)    (FT)
BURNS HARBOR     2217   46      40/  9/ 11 1014.9F
MICHIGAN CITY    2200   45      20/ 10/ 11   N/A

$$

INZ004-005-014>016-021>024-020000-
NORTH CENTRAL INDIANA

CITY           SKY/WX    TMP DP  RH WIND       PRES   REMARKS
GOSHEN         CLOUDY    55  51  86 NE10      29.95F
LOGANSPORT +   CLOUDY    59  55  88 N8        29.91S
PERU/GRISSOM   PTSUNNY   63  60  88 N10       29.89S
ROCHESTER +    CLOUDY    59  55  88 CALM      29.93S FOG
SOUTH BEND     CLOUDY    54  50  86 NE8       29.95F
WARSAW +       CLOUDY    54  52  94 NE9       29.93F

$$

INZ006>009-017-018-025>027-020000-
NORTHEAST INDIANA

CITY           SKY/WX    TMP DP  RH WIND       PRES   REMARKS
ANGOLA *+      CLOUDY    54  52  94 NE7       29.96S
AUBURN +       CLOUDY    54  52  94 NE8       29.95F FOG
FORT WAYNE     CLOUDY    59  54  83 NE14      29.93S
HUNTINGTON +   CLOUDY   N/A N/A N/A NE5       29.92R

$$

INZ028-029-035-036-043>045-051>053-020000-
WEST CENTRAL INDIANA

CITY           SKY/WX    TMP DP  RH WIND       PRES   REMARKS
CRAWFORDSVL +  PTSUNNY   70  58  64 CALM      29.87F
GREENCASTLE +  PTSUNNY   73  61  64 SW3       29.87F
LAFAYETTE      SUNNY     64  58  80 N9        29.88F
TERRE HAUTE    SUNNY     73  58  59 CALM      29.86F

$$

INZ030>032-037>040-046>048-054>057-064-065-020000-
CENTRAL INDIANA

CITY           SKY/WX    TMP DP  RH WIND       PRES   REMARKS
CP ATTERBURY + PTSUNNY   75  55  50 CALM      29.87F
COLUMBUS       MOSUNNY   75  57  53 CALM      29.87F
FRANKFORT +      N/A     70  54  56 N8        29.90S
GREENWOOD *+   MOSUNNY   75  55  50 CALM      29.88
INDIANAPOLIS   PTSUNNY   75  55  49 CALM      29.86F
-EAGLE CREEK   SUNNY     74  56  53 N3        29.86F
KOKOMO *+      MOSUNNY   66  59  77 NE12      29.89S
MARION +       MOSUNNY   68  60  75 NE9       29.90S
SHELBYVILLE    CLOUDY    76  57  51 W5        29.86F
ZIONSVILLE +   SUNNY     71  57  60 CALM      29.89S

$$

INZ033-034-041-042-049-050-058-059-020000-
EAST CENTRAL INDIANA

CITY           SKY/WX    TMP DP  RH WIND       PRES   REMARKS
MUNCIE         MOSUNNY   74  57  55 N6        29.88F

$$

INZ060-061-067>069-081>083-085>088-020000-
SOUTHWEST INDIANA

CITY           SKY/WX    TMP DP  RH WIND       PRES   REMARKS
EVANSVILLE     MOSUNNY   77  62  59 SW12      29.87F
HUNTINGBURG *+ SUNNY     75  64  69 SW12      29.88F
WASHINGTON +   SUNNY     76  65  69 SW10      29.86F

$$

INZ062-063-066-070>080-084-089>092-020000-
SOUTH CENTRAL AND SOUTHEAST INDIANA

CITY           SKY/WX    TMP DP  RH WIND       PRES   REMARKS
BEDFORD +      PTSUNNY   68  64  88 CALM      29.88F
BLOOMINGTON    MOSUNNY   76  58  53 SW7       29.87F
MADISON *+     CLOUDY    64  57  77 N3        29.93R
NORTH VERNON + RAIN      64  64 100 SE10G26   29.91R
SEYMOUR +      CLOUDY    66  61  82 SE7G17    29.89R

$$





USA.gov is the U.S. government's official web portal to all federal, state and local government web resources and services.